Location: Hokitika
(42.7170°S, 170.9670°E)
Time: 14:39:03
(UTC+13:00)

Resurs 01 Rocket - Pass Details

Date: 24 January 2019
Orbit: 635 x 643 km, 98.0° (Epoch: 13 October)

Event Time Altitude Azimuth Distance (km) Brightness Sun altitude
Rises 23:11:06 0° 173° (S) 2,980 5.7 -18.3°
Reaches altitude 10° 23:13:22 10° 178° (S) 2,062 4.9 -18.5°
Maximum altitude 23:17:42 49° 252° (WSW) 834 2.5 -19.0°
Drops below altitude 10° 23:21:59 10° 326° (NW) 2,032 4.0 -19.5°
Enters shadow 23:22:09 - 327° (NNW) 2,098 4.1 -19.5°
